Meteo Giornale » Osservazioni meteo Italia » Bergamo-Orio Al Serio

ore: 14:50 - Osservazioni Meteo Bergamo-Orio Al Serio
Lat. 45° 40' N Lon. 9° 42' E Alt. 238 metri s.l.m.

nuvoloso Europe/Rome

22 °C

Nuvoloso

Temp. 24 Ore

13 °C

22 °C

Nord

7.4 Km/h

Dew point 17 °C

Umidità 73 %

Visibilità  10 Km

Il sole sorge alle ore 07:13

Il sole tramonta alle ore 19:10

Data e Ora Cielo e Fenomeni T °C DP °C Um. % Pres. hPa Vis. km Vento km/h
Oggi h: 14:50 nuvoloso Nuvoloso 22 17 73 1017 10 N 7.4
Oggi h: 14:20 nuvoloso Nuvoloso 22 17 73 1017 10 N 5.5
Oggi h: 13:50 nuvoloso Nuvoloso 21 16 73 1018 10 SO 9.3
Oggi h: 13:20 nuvoloso Nuvoloso 21 16 73 1018 10 S/SO 7.4
Oggi h: 12:50 nuvoloso Nuvoloso 21 16 73 1018 10 N 5.5
Oggi h: 12:20 nuvoloso Nuvoloso 20 16 77 1018 10 O 7.4
Oggi h: 11:50 nuvoloso Nuvoloso 20 15 72 1018 10 N 5.5
Oggi h: 11:20 nuvoloso Nuvoloso 19 15 77 1018 10 O 7.4
Oggi h: 10:50 sereno Sereno 18 15 82 1018 10 N 3.7
Oggi h: 10:20 sereno Sereno 18 16 88 1018 10 N 1.8
Oggi h: 09:50 poco_nuvoloso Poco Nuvoloso 17 16 93 1018 10 N 1.8
Oggi h: 09:20 poco_nuvoloso Poco Nuvoloso 16 15 93 1018 10 N 3.7
Oggi h: 08:50 poco_nuvoloso Poco Nuvoloso 15 15 100 1018 8 N 5.5
Oggi h: 08:20 nebbia NebbiaParziale 14 14 100 1018 0.8 N 5.5
Oggi h: 07:50 nebbia Banco di Nebbia 14 14 100 1018 5 N 3.7
Oggi h: 07:20 nebbia Nebbia 13 13 100 1018 0.1 N 3.7
Oggi h: 06:50 poco_nuvoloso Poco Nuvoloso 13 13 100 1017 6 N 3.7
Oggi h: 05:50 sereno Sereno 14 14 100 1017 10 N 3.7
Oggi h: 05:20 sereno Sereno 14 14 100 1017 10 N 5.5
Oggi h: 04:50 sereno Sereno 14 14 100 1017 10 N 3.7
Oggi h: 04:20 sereno Sereno 14 14 100 1018 10 N 5.5
Oggi h: 03:50 sereno Sereno 14 14 100 1018 10 N 1.8
Oggi h: 02:50 molto_nuvoloso Molto Nuvoloso 16 15 93 1018 6 N 5.5
Oggi h: 02:20 molto_nuvoloso Molto Nuvoloso 16 16 100 1018 7 N 5.5
Oggi h: 01:50 nuvoloso Nuvoloso 15 15 100 1019 7 N 3.7
Oggi h: 01:20 nuvoloso Nuvoloso 15 15 100 1019 7 N 3.7
Oggi h: 00:50 nuvoloso Nuvoloso 15 15 100 1019 6 N 3.7
Oggi h: 00:20 nuvoloso Nuvoloso 15 15 100 1019 6 N 3.7
Ieri h: 23:50 poco_nuvoloso Poco Nuvoloso 15 15 100 1019 6 N 3.7
Ieri h: 23:20 sereno Sereno 15 15 100 1019 8 N 5.5
Ieri h: 22:50 sereno Sereno 16 16 100 1019 6 N 5.5
Ieri h: 22:20 poco_nuvoloso Poco Nuvoloso 17 16 93 1019 10 N 5.5
Ieri h: 21:50 molto_nuvoloso Molto Nuvoloso 17 17 100 1019 8 N 5.5
Ieri h: 21:20 molto_nuvoloso Molto Nuvoloso 17 17 100 1019 6 N 5.5
Ieri h: 20:50 molto_nuvoloso Molto Nuvoloso 18 17 93 1019 8 SO 9.3
Ieri h: 20:20 nuvoloso Nuvoloso 17 17 100 1018 10 N 5.5
Ieri h: 19:50 molto_nuvoloso Molto Nuvoloso 17 17 100 1019 10 N 5.5
Ieri h: 19:20 molto_nuvoloso Molto Nuvoloso 18 17 93 1019 8 N 5.5
Ieri h: 18:50 coperto_pioggia Pioggia Debole 18 16 88 1018 10 N 3.7
Ieri h: 17:50 coperto_pioggia Pioggia Debole Foschia 17 17 100 1018 4 E 16.7
Ieri h: 17:20 nuvoloso_temporali Temporale con Pioggia Debole Foschia 17 17 100 1020 3 N 5.5
Ieri h: 16:50 coperto_pioggia Pioggia Debole Foschia 18 17 93 1020 4 S/SO 13
Ieri h: 16:20 nuvoloso_temporali Temporale con Pioggia Debole Foschia 18 17 93 1020 3 SO 14.8
Ieri h: 15:50 nuvoloso_temporali Temporale con Pioggia Debole Foschia 18 17 93 1019 4 N 3.7